This demonstration page uses our WeatherBlox Daily Observations layout. Learn more.

Left ArrowRight Arrow

Hourly Observations for December 13, 2019

Temp ( °F °C ) Dew Point ( °F °C ) Humidity (%) Winds ( mph kmh ) Pressure ( in mb ) Visibility ( mi km ) Precip ( " mm )
12:56 am 00:56 Mostly Clear 29 -1.7 27 -2.8 92 92 SSE 7 11 29.92 1013 10 16 0.00 0.00
1:56 am 01:56 Mostly Cloudy 30 -1.1 27 -2.8 88 88 S 12 19 29.90 1012 10 16 0.00 0.00
2:56 am 02:56 Mostly Cloudy 31 -0.6 28 -2.2 89 89 S 9 15 29.89 1012 10 16 0.00 0.00
3:56 am 03:56 Clear 27 -2.8 25 -3.9 92 92 S 6 9 29.88 1012 10 16 0.00 0.00
4:56 am 04:56 Mostly Cloudy 27 -2.8 26 -3.3 96 96 Calm 29.87 1012 10 16 0.00 0.00
5:56 am 05:56 Mostly Cloudy 25 -3.9 23 -5 92 92 Calm 29.87 1012 10 16 0.00 0.00
6:56 am 06:56 Mostly Clear 27 -2.8 25 -3.9 92 92 W 5 7 29.87 1012 10 16 0.00 0.00
7:56 am 07:56 Sunny 25 -3.9 23 -5 92 92 NW 8 13 29.88 1012 10 16 0.00 0.00
8:56 am 08:56 Sunny 32 0 30 -1.1 92 92 NW 7 11 29.88 1012 10 16 0.00 0.00
9:56 am 09:56 Sunny 38 3.3 31 -0.6 76 76 NW 10 17 29.88 1012 10 16 0.00 0.00
10:56 am 10:56 Sunny 41 5 31 -0.6 67 67 NNW 10 17 29.88 1012 10 16 0.00 0.00
11:56 am 11:56 Sunny 45 7.2 31 -0.6 58 58 NNW 9 15 29.86 1011 10 16 0.00 0.00
12:56 pm 12:56 Mostly Cloudy 49 9.4 31 -0.6 50 50 N 13 20 29.82 1010 10 16 0.00 0.00
1:56 pm 13:56 Mostly Cloudy 46 7.8 31 -0.6 56 56 NNW 10 17 29.83 1010 10 16 0.00 0.00
2:56 pm 14:56 Partly Cloudy 45 7.2 31 -0.6 58 58 NW 8 13 29.85 1011 10 16 0.00 0.00
3:56 pm 15:56 Sunny 45 7.2 31 -0.6 58 58 WNW 6 9 29.86 1011 10 16 0.00 0.00
4:56 pm 16:56 Partly Cloudy 43 6.1 30 -1.1 60 60 N 8 13 29.88 1012 10 16 0.00 0.00
5:56 pm 17:56 Cloudy 41 5 30 -1.1 65 65 NNW 5 7 29.90 1013 10 16 0.00 0.00
6:56 pm 18:56 Partly Cloudy 39 3.9 29 -1.7 67 67 NNW 8 13 29.92 1013 10 16 0.00 0.00
7:56 pm 19:56 Mostly Cloudy 38 3.3 28 -2.2 68 68 N 15 24 29.94 1014 10 16 0.00 0.00
8:56 pm 20:56 Cloudy 37 2.8 28 -2.2 70 70 NNW 13 20 29.96 1015 10 16 0.00 0.00
9:56 pm 21:56 Partly Cloudy 35 1.7 27 -2.8 72 72 N 9 15 29.96 1014 10 16 0.00 0.00
10:56 pm 22:56 Cloudy 34 1.1 27 -2.8 76 76 N 14 22 29.96 1015 10 16 0.00 0.00
11:56 pm 23:56 Cloudy 32 0 27 -2.8 82 82 N 18 30 29.97 1015 10 16 0.00 0.00

Powered by AerisWeather